Location: Madrid
(40.4000°N, 3.6830°W)
Time: 08:45:36
(UTC+02:00)

ISS - Pass Details

Date: 23 July 2017
Orbit: 400 x 408 km, 51.6° (Epoch: 21 July)

Event Time Altitude Azimuth Distance (km) Brightness Sun altitude
Rises 00:10:16 0° 248° (WSW) 2,301 0.1 -22.3°
Reaches altitude 10° 00:12:24 10° 255° (WSW) 1,445 -0.8 -22.5°
Maximum altitude 00:15:30 42° 329° (NNW) 581 -2.6 -22.8°
Drops below altitude 10° 00:18:37 10° 42° (NE) 1,452 -0.9 -23.1°
Sets 00:20:46 0° 50° (NE) 2,314 0.1 -23.3°
